Weather History for Crestview, FL

Change the Weather History Date:

Wednesday, November 28, 2012

  Actual Average Record
Temperature  
Mean Temperature 50 °F -  
Max Temperature 64 °F 69 °F 85 °F (1990)
Min Temperature 35 °F 44 °F 27 °F (2002)
Degree Days  
Heating Degree Days 14    
Moisture  
Dew Point 43 °F    
Average Humidity 78    
Maximum Humidity 96    
Minimum Humidity 40    
Precipitation  
Precipitation 0.00 in - - ()
Sea Level Pressure  
Sea Level Pressure 30.33 in    
Wind  
Wind Speed 6 mph (North)    
Max Wind Speed 9 mph    
Max Gust Speed 16 mph    
Visibility 7 miles    
Events      
Averages and records for this station are not official NWS values.
T = Trace of Precipitation, MM = Missing Value Source: NWS Daily Summary

Daily Weather History Graph

Daily Weather History Graph

Search for Another Location

Airport:

Trip Planner

Search our weather history database for the weather conditions in past years. The results will help you decide how hot, cold, wet, or windy it might be!

Date:

Astronomy

Nov. 28, 2012 Rise Set
Actual Time 6:23 AM CST 4:44 PM CST
Civil Twilight 5:57 AM CST 5:10 PM CST
Nautical Twilight 5:28 AM CST 5:40 PM CST
Astronomical Twilight 4:59 AM CST 6:09 PM CST
Moon 4:59 PM CST (11/28) 6:20 AM CST (11/28)
Length of Visible Light 11h 12m
Length of Day
10h 20m
Full, 100% of the Moon is Illuminated
Nov 28
Full
Dec 6
Last Quarter
Dec 13
New
Dec 19
First Quarter
Dec 28
Full

Hourly Weather History & Observations

Time (CST) Temp. Windchill Dew Point Humidity Pressure Visibility Wind Dir Wind Speed Gust Speed Precip Events Conditions
12:03 AM 53.6 °F - 51.8 °F 94% 30.26 in 5.0 mi North 5.8 mph - N/A   Overcast
12:53 AM 53.1 °F - 51.1 °F 93% 30.26 in 3.0 mi NNW 8.1 mph - N/A   Overcast
1:53 AM 52.0 °F - 50.0 °F 93% 30.27 in 3.0 mi NNW 8.1 mph - N/A   Overcast
2:37 AM 51.8 °F - 48.2 °F 88% 30.28 in 5.0 mi North 9.2 mph - N/A   Overcast
2:53 AM 52.0 °F - 48.0 °F 86% 30.28 in 5.0 mi North 6.9 mph 16.1 mph N/A   Overcast
3:53 AM 51.1 °F - 48.0 °F 89% 30.29 in 4.0 mi North 4.6 mph - N/A   Overcast
4:53 AM 51.1 °F - 48.0 °F 89% 30.30 in 5.0 mi North 8.1 mph - N/A   Overcast
5:53 AM 50.0 °F - 46.9 °F 89% 30.32 in 5.0 mi North 6.9 mph - N/A   Overcast
6:14 AM 50.0 °F - 46.4 °F 87% 30.32 in 5.0 mi North 6.9 mph - N/A   Overcast
6:39 AM 50.0 °F - 46.4 °F 87% 30.34 in 6.0 mi North 5.8 mph - N/A   Overcast
6:53 AM 50.0 °F - 44.1 °F 80% 30.35 in 8.0 mi North 9.2 mph - N/A   Overcast
7:53 AM 48.9 °F - 43.0 °F 80% 30.38 in 9.0 mi NNW 6.9 mph - N/A   Overcast
8:53 AM 50.0 °F - 43.0 °F 77% 30.39 in 9.0 mi North 5.8 mph - N/A   Overcast
9:53 AM 54.0 °F - 43.0 °F 66% 30.39 in 10.0 mi NNE 9.2 mph - N/A   Scattered Clouds
10:53 AM 57.0 °F - 41.0 °F 55% 30.38 in 10.0 mi NNE 6.9 mph - N/A   Clear
11:53 AM 60.1 °F - 39.9 °F 47% 30.35 in 10.0 mi Variable 6.9 mph - N/A   Clear
12:53 PM 61.0 °F - 39.0 °F 44% 30.32 in 10.0 mi NNE 6.9 mph - N/A   Clear
1:53 PM 62.1 °F - 39.0 °F 43% 30.30 in 10.0 mi North 5.8 mph - N/A   Clear
2:53 PM 64.0 °F - 39.0 °F 40% 30.29 in 10.0 mi NE 5.8 mph - N/A   Clear
3:53 PM 62.1 °F - 37.9 °F 41% 30.30 in 10.0 mi North 4.6 mph - N/A   Clear
4:53 PM 54.0 °F - 43.0 °F 66% 30.32 in 10.0 mi Calm Calm - N/A   Clear
5:53 PM 45.0 °F - 42.1 °F 90% 30.34 in 10.0 mi Calm Calm - N/A   Clear
6:53 PM 43.0 °F 41.3 °F 41.0 °F 93% 30.35 in 8.0 mi North 3.5 mph - N/A   Clear
7:53 PM 41.0 °F - 37.9 °F 89% 30.37 in 10.0 mi Calm Calm - N/A   Clear
8:53 PM 39.9 °F - 37.0 °F 89% 30.38 in 6.0 mi Calm Calm - N/A   Clear
9:53 PM 37.9 °F - 36.0 °F 93% 30.38 in 5.0 mi Calm Calm - N/A   Clear
10:53 PM 37.0 °F - 35.1 °F 93% 30.36 in 6.0 mi Calm Calm - N/A   Clear
11:53 PM 35.1 °F - 34.0 °F 96% 30.36 in 7.0 mi Calm Calm - N/A   Clear